Other Surface Observations
Issued by NWS Upton, NY

Home | Current Version | Previous Version | Text Only | Print | Product List | Glossary On
Versions: 1 2 3 4 5 6 7 8 9 10 11 12 13 14 15 16 17 18 19 20 21 22 23 24 25 26 27 28 29 30 31 32 33 34 35 36 37 38 39 40 41 42 43 44 45 46 47 48 49 50
000
SXUS51 KOKX 112157
OSOOKX
NEW YORK CITY METROPOLITAN AREA WEATHER ROUNDUP
National Weather Service New York NY
500 PM EST MON DEC 11 2017

CITY           SKY/WX    TMP DP  RH WIND       PRES   REMARKS
Central Park   PTCLDY    39  21  48 CALM      30.02R
LaGuardia APRT MOCLDY    41  20  43 W6        30.00R
Kennedy INTL   MOCLDY    39  23  52 W8        30.01R WCI  33
Newark Liberty MOCLDY    39  21  48 W7        30.00R WCI  34
Teterboro APRT PTCLDY    39  21  48 W3        29.99S
Bronx Bot Gard   N/A     37  19  48 W9        30.02R WCI  31
Bronx Lehman C   N/A     39  21  48 W3          N/A
Queens College   N/A     39  21  48 NW6         N/A  WCI  35
Breezy Point     N/A     37 N/A N/A NW7         N/A  WCI  32
Brooklyn Coll    N/A     41  21  45 W9          N/A
Staten Island    N/A     37  23  56 W3          N/A

>>>>>>>>>>>>>>>>>>>>>>>>>>>>>>>>> KEY <<<<<<<<<<<<<<<<<<<<<<<<<<<<<<<
> SKY/WX - SKY CONDITION/PRESENT    : R : WCI - WIND CHILL INDEX    <
>          WEATHER                  : E : VSB - VISIBILITY IN MILES <
> TMP    - TEMPERATURE IN DEG F     : M : HX  - HEAT INDEX          <
> DP     - DEW POINT TEMPERATURE    : A : TC  - TEMPERATURE IN      <
> RH     - RELATIVE HUMIDITY        : R :       CELSIUS             <
> WIND   - DIRECTION/SPEED (MPH)    : K : VRB - VARIABLE WIND  DIR  <
> PRES   - PRESSURE (IN HG)         : S :                           <
>>>>>>>>>>>>>>>>>>>>>>>>>>>>>>>>> KEY <<<<<<<<<<<<<<<<<<<<<<<<<<<<<<<




USA.gov is the U.S. government's official web portal to all federal, state and local government web resources and services.